Location: Borovka
(49.7741°N, 14.5280°E)
Time: 01:05:05
(UTC+00:00)

Cosmos 2084 Rocket - Visible Passes

Search period start: 12 February 2026 00:00
Search period end: 22 February 2026 00:00
Orbit: 542 x 571 km, 62.8° (Epoch: 11 February)

Date Brightness Start Highest point End Pass type
(mag) Time Alt. Az. Time Alt. Az. Time Alt. Az.
12 Feb 5.6 17:03:04 10° NW 17:05:42 16° NNW 17:08:23 10° NNE visible
12 Feb 5.7 18:43:32 10° NNW 18:45:38 15° N 18:45:38 15° N visible
13 Feb 5.6 17:00:31 10° NW 17:02:59 15° N 17:05:29 10° NNE visible
13 Feb 5.6 18:40:39 10° NNW 18:42:52 16° N 18:42:52 16° N visible
14 Feb 5.6 16:57:57 10° NW 17:00:16 14° N 17:02:37 10° NNE visible
14 Feb 5.4 18:37:42 10° NNW 18:40:07 17° N 18:40:07 17° N visible
15 Feb 5.6 16:55:19 10° NW 16:57:33 14° N 16:59:48 10° NNE visible
15 Feb 5.3 18:34:44 10° NNW 18:37:22 19° NNE 18:37:22 19° NNE visible
15 Feb 6.6 20:13:08 10° NW 20:13:11 10° NW 20:13:11 10° NW visible
16 Feb 5.6 16:52:37 10° NNW 16:54:50 14° N 16:57:02 10° NNE visible
16 Feb 5.1 18:31:44 10° NNW 18:34:38 21° NNE 18:34:38 21° NNE visible
16 Feb 6.5 20:10:09 10° NW 20:10:27 12° NW 20:10:27 12° NW visible
17 Feb 4.9 18:28:44 10° NNW 18:31:55 24° NNE 18:31:55 24° NNE visible
17 Feb 6.4 20:07:11 10° NW 20:07:45 14° NW 20:07:45 14° NW visible
18 Feb 4.6 18:25:42 10° NNW 18:29:15 28° NNE 18:29:15 28° NNE visible
18 Feb 6.2 20:04:15 10° NW 20:05:04 15° NW 20:05:04 15° NW visible
19 Feb 4.3 18:22:40 10° NNW 18:26:30 33° NNE 18:26:36 33° NE visible
19 Feb 6.1 20:01:20 10° NW 20:02:26 17° WNW 20:02:26 17° WNW visible
20 Feb 3.9 18:19:38 10° NW 18:23:37 39° NE 18:24:01 38° NE visible
20 Feb 6.0 19:58:27 10° WNW 19:59:51 19° WNW 19:59:51 19° WNW visible
21 Feb 3.7 18:16:36 10° NW 18:20:42 49° NE 18:21:30 42° ENE visible
21 Feb 5.9 19:55:38 10° WNW 19:57:20 20° W 19:57:20 20° W visible
